Wye Mills, MD (21679)

7:01 PM EST on December 10, 2016 (GMT -0500)
Governor Grason II/III | | Change Station

Elev 13 ft 38.95 °N, 76.17 °W | Updated 5 seconds ago

Clear
Clear
32.0 °F
Feels Like 32 °F
N
2.9
Wind Variable Wind from West
Gusts 4.9 mph

Today
High -- | Low -- °F
--% Chance of Precip.
Yesterday
High -- | Low -- °F
Precip. -- in
Pressure 30.53 in
Visibility 10.0 miles
Clouds Clear
Windchill 32 °F
Dew Point -3 °F
Humidity 22%
Rainfall 0.00 in
Snow Depth Not available.
7:12 AM 4:42 PM
Waxing Gibbous, 87% visible
METAR KESN 102350Z 30007KT 10SM SKC 00/M11 A3053
Pressure 30.53 in
Visibility 10.0 miles
Clouds Clear
Windchill 32 °F
Dew Point -3 °F
Humidity 22%
Rainfall 0.00 in
Snow Depth Not available.
7:12 AM 4:42 PM
Waxing Gibbous, 87% visible
METAR KESN 102350Z 30007KT 10SM SKC 00/M11 A3053

10-Day Weather Forecast

Almanac

Astronomy

Dec. 10, 2016 Rise Set
Actual Time
Civil Twilight
Nautical Twilight
Astronomical Twilight
Moon
Length of Visible Light
Length of Day
Tomorrow will be .
, % of the Moon is Illuminated

Today's Extremes

State Highs State Lows

Community

WunderPhotos

Upload Photos

1,956,677 photos uploaded!

WunderBlog® & News

Nearby

Air Quality

  Air Quality AQ Index Pollutant
Not available.

Snow Depth

Station Depth Elevation

Earthquake Activity

City Distance Mag. Time & Date
Minimum magnitude displayed is 2.5.

Coastal Water Temperatures

Place Temperature

Stations

Nearby Weather Stations

Station Location Temp. Windchill Dew Point Humidity Wind Precip. Elev Updated Type
                   

Watches & Warnings

There are currently no watches in effect.